Date String (YYYY-MM-DD hh:mm:ss) UTC,Instrument flags,Ambient pressure (hPa),Sample flow (lpm),Bypass flow (lpm),Sample temperature (°C),Ambient temperature (°C),ASC tube jacket temperature (°C),LED temperature (°C),Box temperature (°C),Sample RH (%),Span deviation,Mass concentration (μg/m³),Mass concentration (μg/m³),Mass concentration (μg/m³)
DateTimeUTC,F1_M11,P_M11,Q1_M11,Q2_M11,T1_M11,T2_M11,T3_M11,T4_M11,T5_M11,U1_M11,ZSPAN_M11,X0_M11,X2_M11,X1_M11
2022-10-28 02:00:00,,0829.5,5.00,0.00,25.1,23.4,00.0,33.9,26.8,16.2,0000.0,0003.52,0002.47,0002.14
2022-10-28 02:01:00,,0829.5,5.00,0.00,25.1,23.4,00.0,33.9,26.9,16.2,0000.0,0003.62,0002.49,0002.16
2022-10-28 02:02:00,,0829.4,5.00,0.00,25.1,23.5,00.0,33.9,26.9,16.1,0000.0,0003.66,0002.51,0002.17
2022-10-28 02:03:00,,0829.5,5.01,0.00,25.1,23.5,00.0,33.9,27.0,16.1,0000.0,0003.71,0002.54,0002.18
2022-10-28 02:04:00,,0829.4,5.00,0.00,25.1,23.5,00.0,33.9,26.9,16.0,0000.0,0003.70,0002.55,0002.19
2022-10-28 02:05:00,,0829.5,4.99,0.00,25.1,23.5,00.0,33.9,26.9,15.9,0000.0,0003.67,0002.53,0002.19
2022-10-28 02:06:00,,0829.5,4.99,0.00,25.1,23.5,00.0,33.9,26.9,15.9,0000.0,0003.88,0002.56,0002.20
2022-10-28 02:07:00,,0829.5,4.99,0.00,25.1,23.5,00.0,33.9,26.9,15.9,0000.0,0004.07,0002.62,0002.23
2022-10-28 02:08:00,,0829.5,5.00,0.00,25.1,23.5,00.0,33.9,26.9,15.8,0000.0,0004.92,0002.67,0002.25
2022-10-28 02:09:00,,0829.6,5.00,0.00,25.1,23.5,00.0,33.9,26.9,15.9,0000.0,0005.02,0002.67,0002.26
2022-10-28 02:10:00,,0829.5,5.01,0.00,25.1,23.5,00.0,33.9,26.9,15.8,0000.0,0004.94,0002.65,0002.27
2022-10-28 02:11:00,,0829.5,5.00,0.00,25.1,23.5,00.0,33.9,26.9,15.7,0000.0,0004.60,0002.58,0002.25
2022-10-28 02:12:00,,0829.5,5.00,0.00,25.1,23.5,00.0,33.9,26.9,15.7,0000.0,0004.47,0002.55,0002.23
2022-10-28 02:13:00,,0829.5,5.01,0.00,25.1,23.5,00.0,33.9,26.9,15.7,0000.0,0004.59,0002.57,0002.23
2022-10-28 02:14:00,,0829.5,5.01,0.00,25.1,23.5,00.0,33.9,26.9,15.7,0000.0,0004.67,0002.58,0002.22
2022-10-28 02:15:00,,0829.5,5.00,0.00,25.1,23.5,00.0,33.9,26.9,15.7,0000.0,0004.77,0002.62,0002.24
2022-10-28 02:16:00,,0829.5,5.00,0.00,25.1,23.5,00.0,33.9,26.9,15.7,0000.0,0004.77,0002.63,0002.25
2022-10-28 02:17:00,,0829.5,5.00,0.00,25.0,23.5,00.0,33.9,26.9,15.7,0000.0,0004.58,0002.60,0002.24
2022-10-28 02:18:00,,0829.4,5.00,0.00,25.1,23.5,00.0,33.9,26.9,15.7,0000.0,0004.52,0002.59,0002.23
2022-10-28 02:19:00,,0829.5,5.01,0.00,25.1,23.5,00.0,33.9,26.9,15.8,0000.0,0003.76,0002.56,0002.22
2022-10-28 02:20:00,,0829.5,5.00,0.00,25.1,23.5,00.0,33.9,26.9,15.8,0000.0,0003.58,0002.56,0002.21
2022-10-28 02:21:00,,0829.5,5.00,0.00,25.1,23.5,00.0,33.9,26.9,15.8,0000.0,0003.67,0002.59,0002.21
2022-10-28 02:22:00,,0829.5,5.00,0.00,25.1,23.5,00.0,33.9,26.9,15.7,0000.0,0003.73,0002.62,0002.21
2022-10-28 02:23:00,,0829.5,5.00,0.00,25.1,23.5,00.0,33.9,26.9,15.8,0000.0,0003.77,0002.64,0002.22
2022-10-28 02:24:00,,0829.6,5.00,0.00,25.1,23.5,00.0,33.9,26.9,15.7,0000.0,0004.05,0002.64,0002.24
2022-10-28 02:25:00,,0829.6,5.00,0.00,25.1,23.5,00.0,33.9,26.9,15.8,0000.0,0004.49,0002.62,0002.24
2022-10-28 02:26:00,,0829.6,5.00,0.00,25.1,23.5,00.0,33.9,26.9,15.8,0000.0,0004.40,0002.58,0002.23
2022-10-28 02:27:00,,0829.6,5.00,0.00,25.1,23.5,00.0,33.9,26.9,15.8,0000.0,0004.36,0002.57,0002.22
2022-10-28 02:28:00,,0829.5,5.00,0.00,25.1,23.5,00.0,33.9,26.9,15.7,0000.0,0004.40,0002.59,0002.23
2022-10-28 02:29:00,,0829.5,5.00,0.00,25.1,23.5,00.0,33.9,26.9,15.7,0000.0,0004.39,0002.60,0002.24
2022-10-28 02:30:00,,0829.5,5.00,0.00,25.1,23.5,00.0,33.9,26.9,15.7,0000.0,0005.05,0002.62,0002.26
2022-10-28 02:31:00,,0829.5,5.00,0.00,25.1,23.5,00.0,33.9,26.9,15.6,0000.0,0005.31,0002.63,0002.28
2022-10-28 02:32:00,,0829.6,5.00,0.00,25.1,23.5,00.0,33.9,26.9,15.7,0000.0,0005.21,0002.61,0002.30
2022-10-28 02:33:00,,0829.7,5.00,0.00,25.1,23.5,00.0,33.9,26.9,15.7,0000.0,0005.26,0002.64,0002.31
2022-10-28 02:34:00,,0829.7,5.00,0.00,25.1,23.5,00.0,33.9,26.9,15.6,0000.0,0005.25,0002.63,0002.32
2022-10-28 02:35:00,,0829.7,5.00,0.00,25.1,23.5,00.0,33.9,26.8,15.7,0000.0,0004.92,0002.64,0002.32
2022-10-28 02:36:00,,0829.7,5.01,0.00,25.0,23.5,00.0,33.9,26.9,15.8,0000.0,0004.43,0002.67,0002.34
2022-10-28 02:37:00,,0829.7,5.01,0.00,25.0,23.5,00.0,33.9,26.9,15.9,0000.0,0004.49,0002.69,0002.34
2022-10-28 02:38:00,,0829.8,5.01,0.00,25.0,23.5,00.0,33.9,26.8,15.7,0000.0,0004.47,0002.68,0002.35
2022-10-28 02:39:00,,0829.8,5.01,0.00,25.0,23.5,00.0,33.9,26.9,15.9,0000.0,0004.44,0002.66,0002.34
2022-10-28 02:40:00,,0829.8,5.00,0.00,25.0,23.5,00.0,33.9,26.9,15.9,0000.0,0004.49,0002.69,0002.36
2022-10-28 02:41:00,,0829.8,5.00,0.00,25.0,23.5,00.0,33.9,26.9,16.0,0000.0,0004.23,0002.74,0002.37
2022-10-28 02:42:00,,0829.9,5.00,0.00,25.0,23.5,00.0,33.9,26.9,16.0,0000.0,0004.10,0002.74,0002.37
2022-10-28 02:43:00,,0829.9,5.00,0.00,25.0,23.5,00.0,33.9,26.9,15.9,0000.0,0004.40,0002.79,0002.37
2022-10-28 02:44:00,,0830.0,4.98,0.00,25.0,23.5,00.0,33.9,26.9,15.9,0000.0,0004.41,0002.79,0002.37
2022-10-28 02:45:00,,0830.0,5.01,0.00,25.0,23.5,00.0,33.9,26.9,16.1,0000.0,0004.45,0002.80,0002.38
2022-10-28 02:46:00,,0830.0,5.01,0.00,25.0,23.5,00.0,33.9,26.8,16.1,0000.0,0004.50,0002.82,0002.40
2022-10-28 02:47:00,,0830.1,4.97,0.00,25.0,23.5,00.0,33.9,26.8,15.8,0000.0,0004.66,0002.84,0002.41
2022-10-28 02:48:00,,0830.1,5.02,0.00,25.0,23.5,00.0,33.9,26.8,15.8,0000.0,0004.65,0002.85,0002.43
2022-10-28 02:49:00,,0830.0,4.99,0.00,25.0,23.5,00.0,33.9,26.8,15.6,0000.0,0004.70,0002.87,0002.46
2022-10-28 02:50:00,,0830.1,5.00,0.00,25.0,23.4,00.0,33.9,26.8,15.8,0000.0,0004.67,0002.87,0002.47
2022-10-28 02:51:00,,0830.1,5.00,0.00,25.0,23.4,00.0,33.9,26.8,15.1,0000.0,0004.62,0002.85,0002.45
2022-10-28 02:52:00,,0830.1,4.99,0.00,25.0,23.4,00.0,33.9,26.8,14.6,0000.0,0004.35,0002.84,0002.43
2022-10-28 02:53:00,,0830.1,4.99,0.00,25.0,23.4,00.0,33.9,26.8,15.1,0000.0,0004.31,0002.85,0002.42
2022-10-28 02:54:00,,0830.1,5.00,0.00,25.0,23.4,00.0,33.8,26.8,15.0,0000.0,0004.47,0002.80,0002.41
2022-10-28 02:55:00,,0830.1,5.00,0.00,25.0,23.4,00.0,33.8,26.9,14.7,0000.0,0004.70,0002.77,0002.38
2022-10-28 02:56:00,,0830.1,5.00,0.00,25.0,23.4,00.0,33.8,26.9,15.7,0000.0,0004.64,0002.75,0002.38
2022-10-28 02:57:00,,0830.2,5.01,0.00,25.0,23.4,00.0,33.8,26.9,15.8,0000.0,0004.62,0002.75,0002.37
2022-10-28 02:58:00,,0830.2,5.00,0.00,25.0,23.5,00.0,33.8,26.9,15.6,0000.0,0005.07,0002.73,0002.36
2022-10-28 02:59:00,,0830.3,5.00,0.00,25.0,23.5,00.0,33.8,26.8,15.6,0000.0,0005.11,0002.73,0002.34
